Flag for Czech Republic Weather past 2 weeks in Tábor, Czech Republic

Now
40 °F

Light rain. Overcast.


Feels Like: 37 °F
Forecast: 40 / 48 °F
Wind: 5 mph from West

Location: Kocelovice

Current Time: Oct 22, 2014 at 9:26:37 AM

Latest Report: Oct 22, 2014 at 8:00 AM


Visibility: 9 mi

Pressure: 29.80 "Hg

Humidity: 86%

Dew point: 37 °F

Location of TáborLocation

Historic Weather in Tábor — Graph

°F

Tábor temperature yesterday

Maximum temperature yesterday: 57 °F (at 12:00 PM)
Minimum temperature yesterday: 45 °F (at 8:00 AM)
Average temperature yesterday: 52 °F

Past Weeks' High & Low Weather Summary

 TemperatureHumidityPressure
High67 °F (Oct 9, 4:00 PM)100% (Oct 9, 1:00 AM)30.31 "Hg (Oct 9, 1:00 AM)
Low40 °F (Oct 22, 8:00 AM)57% (Oct 14, 4:00 PM)29.58 "Hg (Oct 21, 10:00 PM)
Average55 °F89%29.95 "Hg
* Reported Oct 7 8:00 AM — Oct 22 8:00 AM, Tábor, Weather by CustomWeather, © 2014

Note: Actual official high and low records may vary slightly from our data, if they occured in-between our weather recording intervals... More about our weather records

Advertising

Tábor weather history for previous 24 hours

 ConditionsComfort  
Time TempWeatherWind HumidityBarometerVisibility
8:00 AM
Oct 22
40 °FLight rain. Overcast.5 mph86%29.80 "Hg9 mi
7:00 AM41 °FRain showers. Overcast.9 mph82%29.78 "Hg12 mi
6:00 AM42 °FQuite cool.9 mph79%29.76 "Hg12 mi
5:00 AM42 °FQuite cool.10 mph79%29.79 "Hg12 mi
4:00 AM42 °FRain showers. Overcast.10 mph85%29.78 "Hg6 mi
3:00 AM44 °FQuite cool.10 mph80%29.78 "Hg12 mi
2:00 AM45 °FLight rain. Overcast.9 mph79%29.76 "Hg12 mi
1:00 AM46 °FCool.13 mph83%29.69 "Hg12 mi
12:00 AM46 °FRain showers. Overcast.8 mph90%29.64 "Hg12 mi
11:00 PM
Oct 21
49 °FRain. Overcast.15 mph88%29.60 "Hg4 mi
10:00 PM52 °FOvercast.5 mph88%29.58 "Hg22 mi
9:00 PM51 °FOvercast.2 mph88%29.62 "Hg16 mi
8:00 PM53 °FOvercast.N/A79%29.65 "Hg19 mi
7:00 PM53 °FOvercast.N/A76%29.68 "Hg19 mi
6:00 PM54 °FOvercast.2 mph77%29.70 "Hg22 mi
5:00 PM55 °FOvercast.5 mph72%29.72 "Hg22 mi
4:00 PM56 °FOvercast.6 mph71%29.76 "Hg25 mi
3:00 PM56 °FPartly sunny.6 mph66%29.79 "Hg25 mi
2:00 PM55 °FPartly sunny.8 mph65%29.83 "Hg22 mi
1:00 PM54 °FScattered clouds.10 mph65%29.85 "Hg22 mi
12:00 PM57 °FScattered clouds.7 mph64%29.86 "Hg22 mi
11:00 AM54 °FPartly sunny.6 mph74%29.88 "Hg19 mi
10:00 AM51 °FFog.N/A93%29.92 "Hg11 mi
9:00 AM48 °FFog.N/A99%29.93 "Hg1 mi
Weather by CustomWeather, © 2014

See weather overviewHow to use our weather pages